Ada, OK

3:30 AM CST on February 14, 2016 (GMT -0600)
Ada Municipal

Weather History for KADH - January, 2014

Change the Weather History Date:

Friday, January 3, 2014

  Actual Average Record
Temperature  
Mean Temperature 32 °F -  
Max Temperature 44 °F 49 °F 80 °F (2009)
Min Temperature 21 °F 28 °F 2 °F (1911)
Degree Days  
Heating Degree Days 32    
Moisture  
Dew Point 23 °F    
Average Humidity 69    
Maximum Humidity 86    
Minimum Humidity 46    
Precipitation  
Precipitation 0.00 in - - ()
Sea Level Pressure  
Sea Level Pressure 30.21 in    
Wind  
Wind Speed 11 mph (SSE)    
Max Wind Speed 23 mph    
Max Gust Speed 30 mph    
Visibility 10 miles    
Events      
Averages and records for this station are not official NWS values.
T = Trace of Precipitation, MM = Missing Value Source: NWS Daily Summary

Daily Weather History Graph

Daily Weather History Graph

Search for Another Location

Airport or City:

Trip Planner

Search our weather history database for the weather conditions in past years. The results will help you decide how hot, cold, wet, or windy it might be!

Date:

Astronomy

Jan. 03, 2014 Rise Set
Actual Time 7:34 AM CST 5:28 PM CST
Civil Twilight 7:06 AM CST 5:56 PM CST
Nautical Twilight 6:35 AM CST 6:27 PM CST
Astronomical Twilight 6:04 AM CST 6:58 PM CST
Moon 9:08 AM CST (1/3) 8:30 PM CST (1/3)
Length of Visible Light 10h 49m
Length of Day
9h 53m
Waxing Crescent, 8% of the Moon is Illuminated
Jan 3
Waxing Crescent
Jan 7
First Quarter
Jan 15
Full
Jan 23
Last Quarter
Jan 30
New

Hourly Weather History & Observations

Time (CST) Temp. Windchill Dew Point Humidity Pressure Visibility Wind Dir Wind Speed Gust Speed Precip Events Conditions
12:15 AM 23.0 °F 14.7 °F 19.4 °F 86% 30.44 in 10.0 mi ESE 6.9 mph - N/A   Clear
12:35 AM 23.0 °F 14.7 °F 19.4 °F 86% 30.43 in 10.0 mi SE 6.9 mph - N/A   Clear
12:55 AM 23.0 °F 14.7 °F 19.4 °F 86% 30.43 in 10.0 mi SE 6.9 mph - N/A   Clear
1:15 AM 23.0 °F 14.7 °F 17.6 °F 80% 30.42 in 10.0 mi SE 6.9 mph - N/A   Clear
1:35 AM 23.0 °F 13.9 °F 19.4 °F 86% 30.42 in 10.0 mi SE 8.1 mph - N/A   Clear
1:55 AM 23.0 °F 15.8 °F 17.6 °F 80% 30.42 in 10.0 mi SSE 5.8 mph - N/A   Clear
2:15 AM 23.0 °F 14.7 °F 17.6 °F 80% 30.42 in 10.0 mi SSE 6.9 mph - N/A   Clear
2:35 AM 21.2 °F 12.6 °F 17.6 °F 86% 30.42 in 10.0 mi SE 6.9 mph - N/A   Clear
2:55 AM 21.2 °F 12.6 °F 17.6 °F 86% 30.42 in 10.0 mi SE 6.9 mph - N/A   Clear
3:15 AM 21.2 °F 12.6 °F 17.6 °F 86% 30.42 in 10.0 mi SE 6.9 mph - N/A   Clear
3:35 AM 21.2 °F 12.6 °F 17.6 °F 86% 30.41 in 10.0 mi ESE 6.9 mph - N/A   Clear
3:55 AM 23.0 °F 15.8 °F 17.6 °F 80% 30.41 in 10.0 mi SE 5.8 mph - N/A   Clear
4:15 AM 21.2 °F 14.9 °F 17.6 °F 86% 30.39 in 10.0 mi SSE 4.6 mph - N/A   Clear
4:35 AM 21.2 °F 13.6 °F 17.6 °F 86% 30.39 in 10.0 mi SSE 5.8 mph - N/A   Clear
4:55 AM 21.2 °F 13.6 °F 17.6 °F 86% 30.39 in 10.0 mi SE 5.8 mph - N/A   Clear
5:15 AM 21.2 °F 13.6 °F 17.6 °F 86% 30.38 in 10.0 mi SSE 5.8 mph - N/A   Clear
5:35 AM 21.2 °F 13.6 °F 17.6 °F 86% 30.38 in 10.0 mi SSE 5.8 mph - N/A   Clear
5:55 AM 21.2 °F 12.6 °F 17.6 °F 86% 30.37 in 10.0 mi SSE 6.9 mph - N/A   Clear
6:15 AM 23.0 °F 13.9 °F 17.6 °F 80% 30.37 in 10.0 mi SE 8.1 mph - N/A   Clear
6:35 AM 23.0 °F 14.7 °F 19.4 °F 86% 30.36 in 10.0 mi SSE 6.9 mph - N/A   Clear
6:55 AM 23.0 °F 14.7 °F 17.6 °F 80% 30.36 in 10.0 mi SSE 6.9 mph - N/A   Clear
7:15 AM 23.0 °F 14.7 °F 19.4 °F 86% 30.36 in 10.0 mi SSE 6.9 mph - N/A   Clear
7:35 AM 23.0 °F 13.1 °F 19.4 °F 86% 30.36 in 10.0 mi SSE 9.2 mph - N/A   Clear
7:55 AM 23.0 °F 13.1 °F 19.4 °F 86% 30.36 in 10.0 mi South 9.2 mph - N/A   Clear
8:15 AM 24.8 °F 13.4 °F 19.4 °F 80% 30.36 in 10.0 mi SSE 12.7 mph - N/A   Clear
8:35 AM 26.6 °F 15.7 °F 19.4 °F 74% 30.35 in 10.0 mi SSE 12.7 mph - N/A   Clear
8:55 AM 26.6 °F 15.7 °F 19.4 °F 74% 30.36 in 10.0 mi SSE 12.7 mph - N/A   Clear
9:15 AM 28.4 °F 18.0 °F 21.2 °F 74% 30.35 in 10.0 mi SSE 12.7 mph 19.6 mph N/A   Clear
9:35 AM 30.2 °F 19.8 °F 21.2 °F 69% 30.35 in 10.0 mi SSE 13.8 mph - N/A   Clear
9:55 AM 32.0 °F 21.2 °F 23.0 °F 69% 30.34 in 10.0 mi SSE 16.1 mph 19.6 mph N/A   Clear
10:15 AM 32.0 °F 21.6 °F 23.0 °F 69% 30.34 in 10.0 mi SSE 15.0 mph 20.7 mph N/A   Clear
10:35 AM 33.8 °F 24.3 °F 24.8 °F 70% 30.33 in 10.0 mi SSE 13.8 mph 19.6 mph N/A   Clear
10:55 AM 33.8 °F 23.5 °F 24.8 °F 70% 30.32 in 10.0 mi SSE 16.1 mph 23.0 mph N/A   Clear
11:15 AM 35.6 °F 25.2 °F 24.8 °F 65% 30.31 in 10.0 mi South 18.4 mph 23.0 mph N/A   Clear
11:35 AM 37.4 °F 28.2 °F 26.6 °F 65% 30.29 in 10.0 mi South 16.1 mph - N/A   Clear
11:55 AM 37.4 °F 26.9 °F 26.6 °F 65% 30.27 in 10.0 mi South 20.7 mph - N/A   Clear
12:15 PM 39.2 °F 30.5 °F 26.6 °F 61% 30.24 in 10.0 mi South 16.1 mph 23.0 mph N/A   Clear
12:35 PM 41.0 °F 31.9 °F 26.6 °F 57% 30.22 in 10.0 mi South 19.6 mph 23.0 mph N/A   Clear
12:55 PM 41.0 °F 32.2 °F 26.6 °F 57% 30.20 in 10.0 mi South 18.4 mph 26.5 mph N/A   Clear
1:15 PM 41.0 °F 33.1 °F 26.6 °F 57% 30.19 in 10.0 mi SSE 15.0 mph 25.3 mph N/A   Clear
1:35 PM 42.8 °F 35.4 °F 26.6 °F 53% 30.17 in 10.0 mi South 15.0 mph 27.6 mph N/A   Clear
1:55 PM 42.8 °F 34.3 °F 26.6 °F 53% 30.16 in 10.0 mi South 19.6 mph 26.5 mph N/A   Clear
2:15 PM 42.8 °F 35.1 °F 26.6 °F 53% 30.14 in 10.0 mi SSE 16.1 mph 23.0 mph N/A   Clear
2:35 PM 42.8 °F 34.3 °F 26.6 °F 53% 30.13 in 10.0 mi South 19.6 mph 27.6 mph N/A   Clear
2:55 PM 42.8 °F 34.3 °F 26.6 °F 53% 30.12 in 10.0 mi South 19.6 mph 27.6 mph N/A   Clear
3:15 PM 44.6 °F 36.6 °F 26.6 °F 49% 30.11 in 10.0 mi South 19.6 mph 27.6 mph N/A   Clear
3:35 PM 44.6 °F 36.6 °F 24.8 °F 46% 30.10 in 10.0 mi South 19.6 mph 26.5 mph N/A   Clear
3:55 PM 42.8 °F 34.3 °F 24.8 °F 49% 30.08 in 10.0 mi South 19.6 mph 29.9 mph N/A   Clear
4:15 PM 42.8 °F 34.3 °F 24.8 °F 49% 30.07 in 10.0 mi South 19.6 mph 29.9 mph N/A   Clear
4:35 PM 42.8 °F 34.5 °F 24.8 °F 49% 30.05 in 10.0 mi SSE 18.4 mph 28.8 mph N/A   Clear
4:55 PM 42.8 °F 34.8 °F 24.8 °F 49% 30.04 in 10.0 mi South 17.3 mph 27.6 mph N/A   Clear
5:15 PM 41.0 °F 32.5 °F 26.6 °F 57% 30.03 in 10.0 mi SSE 17.3 mph 26.5 mph N/A   Clear
5:35 PM 41.0 °F 33.1 °F 26.6 °F 57% 30.03 in 10.0 mi SSE 15.0 mph 23.0 mph N/A   Clear
5:55 PM 39.2 °F 31.2 °F 26.6 °F 61% 30.02 in 10.0 mi SSE 13.8 mph 20.7 mph N/A   Clear
6:15 PM 39.2 °F 31.2 °F 26.6 °F 61% 30.02 in 10.0 mi SSE 13.8 mph - N/A   Clear
6:35 PM 39.2 °F 30.8 °F 26.6 °F 61% 30.02 in 10.0 mi SSE 15.0 mph 18.4 mph N/A   Clear
6:55 PM 41.0 °F 32.5 °F 26.6 °F 57% 30.02 in 10.0 mi South 17.3 mph 23.0 mph N/A   Clear
7:15 PM 39.2 °F 29.3 °F 26.6 °F 61% 30.02 in 10.0 mi South 20.7 mph 26.5 mph N/A   Clear
7:35 PM 41.0 °F 31.1 °F 26.6 °F 57% 30.01 in 10.0 mi South 23.0 mph 28.8 mph N/A   Clear
7:55 PM 39.2 °F 29.8 °F 26.6 °F 61% 30.00 in 10.0 mi South 18.4 mph 26.5 mph N/A   Clear
8:15 PM 39.2 °F 29.3 °F 26.6 °F 61% 30.00 in 10.0 mi SSE 20.7 mph 27.6 mph N/A   Clear
8:35 PM 39.2 °F 29.6 °F 26.6 °F 61% 29.99 in 10.0 mi South 19.6 mph 25.3 mph N/A   Clear
8:55 PM 37.4 °F 27.8 °F 26.6 °F 65% 29.99 in 10.0 mi SSE 17.3 mph 26.5 mph N/A   Clear
9:15 PM 37.4 °F 27.5 °F 26.6 °F 65% 29.98 in 10.0 mi SSE 18.4 mph 23.0 mph N/A   Clear
9:35 PM 37.4 °F 27.5 °F 26.6 °F 65% 29.97 in 10.0 mi SSE 18.4 mph 24.2 mph N/A   Clear
9:55 PM 37.4 °F 28.5 °F 26.6 °F 65% 29.97 in 10.0 mi South 15.0 mph - N/A   Clear
10:15 PM 37.4 °F 28.2 °F 26.6 °F 65% 29.97 in 10.0 mi SSE 16.1 mph 21.9 mph N/A   Clear
10:35 PM 37.4 °F 29.3 °F 26.6 °F 65% 29.97 in 10.0 mi SSE 12.7 mph 20.7 mph N/A   Clear
10:55 PM 37.4 °F 30.3 °F 26.6 °F 65% 29.97 in 10.0 mi SSE 10.4 mph 17.3 mph N/A   Clear
11:15 PM 35.6 °F 27.1 °F 26.6 °F 70% 29.96 in 10.0 mi SSE 12.7 mph 17.3 mph N/A   Clear
11:35 PM 35.6 °F 27.1 °F 26.6 °F 70% 29.95 in 10.0 mi SSE 12.7 mph - N/A   Clear
11:55 PM 35.6 °F 28.0 °F 26.6 °F 70% 29.94 in 10.0 mi SSE 10.4 mph - N/A   Clear